Regional Weather Roundup
Issued by NWS Charleston, WV

Home | Current Version | Previous Version | Text Only | Print | Product List | Glossary On
Versions: 1 2 3 4 5 6 7 8 9 10 11 12 13 14 15 16 17 18 19 20 21 22 23 24 25 26 27 28 29 30 31 32 33 34 35 36 37 38 39 40 41 42 43 44 45 46 47
000
ASUS41 KRLX 040710
RWRRLX
West Virginia Regional Weather Roundup
National Weather Service Charleston WV
300 AM EDT FRI SEP 04 2015

Note: "fair" indicates few or no clouds below 12,000 feet with no
significant weather and/or obstructions to visibility.

WVZ003-040800-
Northern Panhandle of West Virginia

CITY           SKY/WX    TMP DP  RH WIND       PRES   REMARKS
WHEELING       MOCLDY    67  64  90 N5        30.02S FOG
$$

WVZ009-040800-
Northwest West Virginia

CITY           SKY/WX    TMP DP  RH WIND       PRES   REMARKS
PARKERSBURG    FOG       65  64  97 CALM      30.02S VSB 1/4
$$

WVZ006-040800-
Western West Virginia

CITY           SKY/WX    TMP DP  RH WIND       PRES   REMARKS
HUNTINGTON     CLEAR     66  66 100 CALM      29.99S FOG
$$

WVZ015-040800-
West Central West Virginia

CITY           SKY/WX    TMP DP  RH WIND       PRES   REMARKS
CHARLESTON     CLEAR     68  67  96 CALM      29.99F FOG
$$

WVZ022-031-040800-
North Central West Virginia

CITY           SKY/WX    TMP DP  RH WIND       PRES   REMARKS
CLARKSBURG     CLEAR     64  63  96 CALM      30.01S FOG
MORGANTOWN     CLEAR     69  64  84 CALM      30.02F HAZE
$$

WVZ025-035-042-045-040800-
Southern West Virginia

CITY           SKY/WX    TMP DP  RH WIND       PRES   REMARKS
BECKLEY        CLEAR     65  62  90 CALM      30.08S
LOGAN            N/A     70  68  94 CALM      30.03R FOG
BLUEFIELD      CLEAR     70  63  78 CALM      30.10S
LEWISBURG      FOG       65  63  94 CALM      30.07R VSB 1/4
$$

WVZ047-040800-
Northern Mountains of West Virginia

CITY           SKY/WX    TMP DP  RH WIND       PRES   REMARKS
ELKINS         MOCLDY    63  61  93 SE3       30.06S FOG
$$

WVZ052-040800-
Eastern Panhandle of West Virginia

CITY           SKY/WX    TMP DP  RH WIND       PRES   REMARKS
MARTINSBURG    PTCLDY    66  65  96 CALM      29.95S FOG
PETERSBURG     FOG       65  65  99 CALM      30.00S VSB 1/2
$$


USA.gov is the U.S. government's official web portal to all federal, state and local government web resources and services.